[[{"header":{"parameterUnit":"m.s-1","parameterCategory":2,"la1":30.2991,"la2":30.254,"lo1":-89.0895,"lo2":-89.0444,"dy":0.0017,"dx":0.0017,"nx":28,"ny":28,"refTime":"2024-04-20T03:00:00:Z","depth":"0","parameterNumber":2,"parameterNumberName":"U-component_of_CURRENTS"},"data":[0,0,0,0,0,0,0,0,0,0,0,0,0,0,0,0,0,0,0,0,0,0,0,0,0,0,0,0,0,0,0,0,0,0,0,0,0,0,0,0,0,0,0,0,0,0,0,0,0,0,0,0,0,0,0,0,0,0,0.2552,0.2551,0,0.2443,0.2442,0.2442,0.2389,0.2388,0.2388,0.2387,0.2383,0.2384,0.2384,0,0,0,0,0,0,0,0,0,0,0,0,0,0.2638,0.2637,0.2552,0.255,0.2548,0.2443,0.2442,0.2442,0.2389,0.2388,0.2388,0.2387,0.2383,0.2383,0.2384,0,0,0,0,0,0,0,0,0,0,0,0,0,0.2579,0.2637,0.2553,0.2504,0.2498,0.2443,0.2442,0.2441,0.2389,0.2388,0.2387,0.2386,0.2383,0.2383,0.2384,0.2409,0,0,0.2387,0.2387,0,0,0,0,0,0,0,0,0.2583,0.2577,0.2513,0.2507,0.25,0.2422,0.247,0.2433,0.239,0.2439,0.2387,0.2386,0.2402,0.2401,0.2392,0.2409,0.2409,0.2387,0.2387,0.2387,0.2388,0,0,0,0,0,0,0,0.2587,0.2581,0.2517,0.2511,0.2503,0.246,0.2452,0.2463,0.2435,0.2434,0.2428,0.2404,0.24,0.2391,0.2392,0.2409,0.2387,0.2387,0.2388,0.2388,0.2473,0.2474,0,0,0,0,0,0,0.259,0.2586,0.252,0.2513,0.2531,0.2459,0.245,0.2454,0.2432,0.2425,0.2405,0.2402,0.239,0.2391,0.2391,0.2421,0.2387,0.2388,0.2389,0.2471,0.2473,0.2475,0,0,0,0,0,0,0.2593,0.2587,0.2525,0.2539,0.2527,0.2458,0.2463,0.2452,0.2443,0.2408,0.2404,0.2405,0.239,0.239,0.2403,0.242,0.2389,0.2389,0.2469,0.2472,0.2474,0.248,0,0,0,0,0,0,0.2597,0.259,0.2606,0.254,0.2526,0.2504,0.2463,0.2451,0.2426,0.2421,0.2407,0.2405,0.2389,0.2402,0.2404,0.2421,0.239,0.2467,0.247,0.2473,0.2477,0.2482,0.2487,0,0,0,0,0,0.2601,0.2615,0.2609,0.26,0.2548,0.2504,0.2495,0.2445,0.2427,0.2433,0.2418,0.2405,0.2425,0.2403,0.2405,0.2423,0.2465,0.2469,0.2473,0.2475,0.2481,0.2487,0,0,0,0,0,0,0.2646,0.2608,0.26,0.26,0.2562,0.2492,0.2478,0.2455,0.2446,0.2438,0.242,0.2418,0.2439,0.244,0.2417,0.2463,0.2447,0.2452,0.2449,0.2454,0.2459,0.2445,0.2391,0,0,0,0,0,0.2669,0.2681,0.2626,0.2628,0.2607,0.2551,0.2529,0.2496,0.2466,0.2459,0.245,0.2449,0.246,0.2461,0.2471,0.2492,0.2511,0.2511,0.2516,0.2519,0.2513,0.2575,0.2584,0.2488,0.2488,0.2488,0,0,0.268,0.2664,0.2667,0.264,0.2601,0.2569,0.2537,0.2499,0.2478,0.2464,0.2453,0.2467,0.2472,0.2489,0.25,0.2488,0.2559,0.2524,0.2527,0.2518,0.258,0.2589,0.2598,0.2491,0.249,0.249,0,0,0.2692,0.2699,0.2701,0.2678,0.2626,0.2588,0.2582,0.2526,0.2509,0.2503,0.2493,0.2518,0.2523,0.253,0.2534,0.2578,0.2586,0.259,0.2591,0.2652,0.266,0.2667,0.2704,0.2714,0.2586,0.2586,0.2586,0,0.2703,0.2708,0.2692,0.2677,0.2647,0.2598,0.2572,0.2549,0.251,0.2507,0.2503,0.2534,0.2541,0.2564,0.2573,0.2586,0.2614,0.2562,0.2656,0.2664,0.2671,0.2707,0.2718,0.2587,0.2587,0.2587,0.2587,0,0.2705,0.2709,0.27,0.2674,0.2647,0.2618,0.2568,0.2557,0.2535,0.2518,0.2545,0.2563,0.2581,0.2599,0.259,0.2647,0.2648,0.2657,0.2634,0.2681,0.2716,0.2728,0.2588,0.2588,0.2587,0.2587,0,0,0.2708,0.2706,0.2703,0.2692,0.2643,0.2612,0.2584,0.255,0.2537,0.2541,0.2547,0.2579,0.2598,0.2606,0.2623,0.2668,0.2742,0.2678,0.2681,0.2699,0.2866,0.2844,0.2854,0.2769,0.2771,0.2773,0.2869,0,0.2704,0.2698,0.2693,0.2663,0.2636,0.2603,0.258,0.255,0.2537,0.254,0.2569,0.259,0.2597,0.2617,0.2665,0.2725,0.2773,0.2714,0.283,0.2833,0.2797,0.2867,0.2749,0.2823,0.288,0.2882,0.2884,0,0.2685,0.2689,0.2669,0.2654,0.2638,0.2617,0.2574,0.2556,0.255,0.2548,0.2576,0.2595,0.2653,0.2661,0.2782,0.2745,0.2804,0.285,0.2856,0.2837,0.2833,0.2789,0.2842,0.2684,0.2901,0.29,0.2899,0,0.2658,0.2662,0.2651,0.2642,0.2613,0.2602,0.2589,0.2563,0.2544,0.2564,0.2566,0.2631,0.2668,0.2758,0.2829,0.2822,0.296,0.2968,0.3003,0.3001,0.2923,0.2911,0.2822,0.3066,0.3066,0.3066,0.3065,0,0.2631,0.2617,0.2647,0.2628,0.2611,0.2601,0.2578,0.2567,0.2564,0.2547,0.2583,0.2594,0.2698,0.2768,0.2845,0.2951,0.298,0.3015,0.3035,0.2923,0.291,0.2787,0.2708,0.3069,0.3068,0.3068,0.3067,0,0.2567,0.2592,0.2573,0.2582,0.2585,0.2567,0.2559,0.2537,0.2552,0.2536,0.2544,0.2587,0.2685,0.2773,0.2918,0.2968,0.2976,0.31,0.2945,0.2945,0.2838,0.2766,0.269,0.2637,0.3175,0.3175,0.3175,0,0.2532,0.2517,0.2532,0.2519,0.2519,0.2514,0.2491,0.2511,0.2495,0.2523,0.2513,0.2597,0.264,0.2829,0.2928,0.3063,0.2958,0.3033,0.3007,0.2819,0.2755,0.2664,0.2618,0.2908,0.2906,0.2904,0.2903,0,0.2442,0.2449,0.244,0.2432,0.2417,0.24,0.2397,0.2385,0.2402,0.2411,0.2444,0.2495,0.2662,0.2728,0.2881,0.2966,0.2844,0.3005,0.2855,0.2575,0.2426,0.2387,0.2838,0.2888,0.2889,0.289,0.2891,0.2892,0.2355,0.2344,0.2336,0.2315,0.2303,0.2261,0.2225,0.2246,0.2226,0.2216,0.233,0.2365,0.2481,0.2688,0.2747,0.272,0.2767,0.2671,0.2614,0.2551,0.244,0.285,0.2894,0.2895,0.2897,0.2898,0.2899,0,0.2207,0.2219,0.2212,0.2174,0.2118,0.2146,0.2122,0.2077,0.2045,0.2096,0.2133,0.216,0.2225,0.2326,0.2363,0.2299,0.2273,0.224,0.2049,0.2043,0.2441,0.2366,0.224,0.224,0.224,0.2241,0.2241,0.2241,0.2122,0.2074,0.2089,0.198,0.1955,0.1855,0.1819,0.18,0.1825,0.1785,0.178,0.1819,0.1884,0.1863,0.1807,0.1828,0.1679,0.1645,0.1657,0.1861,0.1894,0.1927,0.1835,0.1601,0.16,0.1207,0.1203,0.12]},{"header":{"parameterUnit":"m.s-1","parameterCategory":2,"la1":30.2991,"la2":30.254,"lo1":-89.0895,"lo2":-89.0444,"dy":0.0017,"dx":0.0017,"nx":28,"ny":28,"refTime":"2024-04-20T03:00:00:Z","depth":"0","parameterNumber":3,"parameterNumberName":"V-component_of_CURRENTS"},"data":[0,0,0,0,0,0,0,0,0,0,0,0,0,0,0,0,0,0,0,0,0,0,0,0,0,0,0,0,0,0,0,0,0,0,0,0,0,0,0,0,0,0,0,0,0,0,0,0,0,0,0,0,0,0,0,0,0,0,-0.0976,-0.0975,0,-0.0943,-0.0944,-0.0944,-0.0937,-0.0937,-0.0937,-0.0936,-0.0929,-0.0929,-0.0929,0,0,0,0,0,0,0,0,0,0,0,0,0,-0.0974,-0.0975,-0.0976,-0.0975,-0.0974,-0.0943,-0.0944,-0.0944,-0.0938,-0.0937,-0.0937,-0.0936,-0.0929,-0.0929,-0.0929,0,0,0,0,0,0,0,0,0,0,0,0,0,-0.0968,-0.0975,-0.0976,-0.0963,-0.096,-0.0943,-0.0944,-0.0944,-0.0938,-0.0937,-0.0937,-0.0936,-0.0929,-0.0929,-0.0929,-0.094,0,0,-0.093,-0.093,0,0,0,0,0,0,0,0,-0.0968,-0.0969,-0.0966,-0.0963,-0.0961,-0.0938,-0.094,-0.0942,-0.0938,-0.0953,-0.0936,-0.0936,-0.093,-0.093,-0.0934,-0.094,-0.094,-0.093,-0.093,-0.093,-0.093,0,0,0,0,0,0,0,-0.0969,-0.097,-0.097,-0.0964,-0.0962,-0.0937,-0.0937,-0.094,-0.0951,-0.0952,-0.095,-0.0936,-0.093,-0.0934,-0.0934,-0.094,-0.093,-0.093,-0.093,-0.093,-0.094,-0.094,0,0,0,0,0,0,-0.0964,-0.0971,-0.0971,-0.0968,-0.0956,-0.0937,-0.0937,-0.0951,-0.095,-0.0947,-0.0936,-0.0935,-0.0934,-0.0934,-0.0934,-0.0922,-0.093,-0.093,-0.093,-0.094,-0.094,-0.094,0,0,0,0,0,0,-0.0964,-0.0965,-0.0972,-0.0961,-0.096,-0.0938,-0.0953,-0.0951,-0.0954,-0.0937,-0.0936,-0.0941,-0.0934,-0.0934,-0.0927,-0.0923,-0.093,-0.093,-0.0939,-0.094,-0.094,-0.0915,0,0,0,0,0,0,-0.0965,-0.0967,-0.098,-0.0962,-0.096,-0.0971,-0.0953,-0.095,-0.0943,-0.0942,-0.094,-0.0939,-0.0933,-0.0927,-0.0927,-0.0923,-0.093,-0.0939,-0.0939,-0.094,-0.0915,-0.0914,-0.0913,0,0,0,0,0,-0.0966,-0.0986,-0.0982,-0.0981,-0.0979,-0.0971,-0.0969,-0.0954,-0.0944,-0.0955,-0.0938,-0.0939,-0.093,-0.0927,-0.0928,-0.0923,-0.0939,-0.0939,-0.094,-0.0916,-0.0914,-0.0913,0,0,0,0,0,0,-0.0979,-0.0986,-0.0981,-0.1,-0.0988,-0.0968,-0.0969,-0.0958,-0.0955,-0.095,-0.0938,-0.0936,-0.093,-0.0935,-0.0932,-0.0929,-0.0936,-0.0937,-0.0918,-0.0917,-0.0915,-0.0909,-0.093,0,0,0,0,0,-0.099,-0.102,-0.1003,-0.1017,-0.1012,-0.0992,-0.0987,-0.0975,-0.0962,-0.0961,-0.0953,-0.0945,-0.0934,-0.093,-0.0929,-0.0927,-0.0933,-0.0927,-0.0926,-0.0925,-0.0922,-0.0938,-0.0938,-0.0941,-0.0941,-0.0941,0,0,-0.0993,-0.1003,-0.1015,-0.1023,-0.1013,-0.0998,-0.099,-0.0983,-0.0958,-0.096,-0.0939,-0.0943,-0.0933,-0.0925,-0.0924,-0.0926,-0.0924,-0.0926,-0.0924,-0.0921,-0.0939,-0.0938,-0.0938,-0.0941,-0.0941,-0.0941,0,0,-0.1009,-0.1027,-0.105,-0.1044,-0.103,-0.101,-0.1008,-0.099,-0.0975,-0.0956,-0.0945,-0.0948,-0.0933,-0.0928,-0.0919,-0.0916,-0.0918,-0.0917,-0.0902,-0.0918,-0.0917,-0.0917,-0.0907,-0.0906,-0.0914,-0.0914,-0.0914,0,-0.1005,-0.104,-0.1049,-0.1055,-0.1038,-0.1013,-0.1002,-0.098,-0.0959,-0.0944,-0.0946,-0.0933,-0.0932,-0.0913,-0.0906,-0.0913,-0.0912,-0.0904,-0.0915,-0.0916,-0.0916,-0.0905,-0.0904,-0.0913,-0.0913,-0.0913,-0.0913,0,-0.1029,-0.1048,-0.1056,-0.1056,-0.1038,-0.1033,-0.0987,-0.097,-0.0945,-0.0924,-0.0911,-0.0915,-0.0909,-0.0911,-0.0899,-0.0899,-0.0893,-0.0912,-0.0916,-0.0914,-0.0903,-0.0902,-0.0911,-0.0912,-0.0912,-0.0912,0,0,-0.1036,-0.1069,-0.1073,-0.1068,-0.1041,-0.1024,-0.0977,-0.0936,-0.09,-0.0896,-0.0867,-0.0864,-0.0879,-0.0872,-0.0877,-0.0887,-0.0883,-0.0893,-0.0895,-0.0876,-0.0894,-0.082,-0.0813,-0.0903,-0.0903,-0.0903,-0.0879,0,-0.1047,-0.1074,-0.1076,-0.1059,-0.1053,-0.1013,-0.0966,-0.092,-0.0883,-0.0849,-0.0853,-0.0835,-0.0856,-0.0856,-0.087,-0.088,-0.0884,-0.0886,-0.0905,-0.0905,-0.0835,-0.0811,-0.0735,-0.0701,-0.0879,-0.0879,-0.0879,0,-0.1062,-0.108,-0.1082,-0.106,-0.105,-0.1025,-0.0949,-0.0907,-0.0846,-0.0822,-0.0815,-0.0807,-0.0811,-0.0836,-0.0859,-0.0857,-0.087,-0.0884,-0.0884,-0.0823,-0.083,-0.0737,-0.0694,-0.0715,-0.0879,-0.0879,-0.0879,0,-0.1057,-0.1076,-0.1081,-0.1074,-0.1037,-0.1015,-0.0983,-0.091,-0.0859,-0.0813,-0.0778,-0.0789,-0.0781,-0.0817,-0.0826,-0.0846,-0.0842,-0.0881,-0.0826,-0.0821,-0.0763,-0.0751,-0.0738,-0.09,-0.09,-0.09,-0.09,0,-0.1061,-0.1062,-0.1088,-0.1079,-0.1053,-0.1024,-0.0973,-0.0927,-0.0862,-0.0791,-0.0779,-0.0724,-0.0776,-0.0765,-0.0805,-0.0792,-0.0829,-0.0808,-0.0808,-0.0749,-0.0737,-0.0759,-0.0791,-0.0899,-0.0899,-0.0899,-0.0899,0,-0.1032,-0.1067,-0.1055,-0.1047,-0.1047,-0.1018,-0.0969,-0.091,-0.0864,-0.0769,-0.075,-0.0679,-0.0646,-0.0677,-0.0712,-0.074,-0.0741,-0.0747,-0.0652,-0.0641,-0.0612,-0.0644,-0.0613,-0.0613,-0.0689,-0.0687,-0.0686,0,-0.1014,-0.1011,-0.1021,-0.1014,-0.1012,-0.099,-0.0945,-0.0906,-0.0828,-0.0724,-0.0652,-0.0596,-0.0509,-0.0513,-0.0546,-0.0578,-0.0635,-0.0545,-0.0577,-0.0578,-0.0617,-0.0641,-0.0647,-0.0491,-0.0487,-0.0485,-0.0483,0,-0.0941,-0.0952,-0.0947,-0.0944,-0.0922,-0.088,-0.0826,-0.0769,-0.0684,-0.0609,-0.0471,-0.041,-0.0373,-0.0323,-0.0356,-0.0397,-0.0523,-0.0491,-0.0531,-0.0477,-0.0466,-0.0476,-0.0529,-0.046,-0.0462,-0.0464,-0.0465,-0.0466,-0.0861,-0.0862,-0.0862,-0.0841,-0.0812,-0.0722,-0.0661,-0.0579,-0.0457,-0.0291,-0.0299,-0.0152,-0.0151,-0.0156,-0.0228,-0.0279,-0.0342,-0.031,-0.0353,-0.0381,-0.0363,-0.034,-0.0249,-0.025,-0.0251,-0.0252,-0.0253,0,-0.0745,-0.0772,-0.0755,-0.0714,-0.0621,-0.0643,-0.0526,-0.0433,-0.0265,-0.0132,-0.0024,0.011,0.0121,0.005,-0.0037,-0.0128,-0.0202,-0.0188,-0.023,-0.025,-0.0254,-0.0227,-0.008,-0.008,-0.008,-0.008,-0.008,-0.008,-0.0696,-0.0668,-0.0676,-0.0522,-0.048,-0.0349,-0.0267,-0.0149,-0.0033,0.0177,0.0313,0.0373,0.0361,0.0149,-0.0003,-0.0073,-0.0171,-0.0153,-0.024,-0.0269,-0.0285,-0.0301,-0.0284,-0.015,-0.015,-0.0199,-0.0199,-0.02]}],[{"header":{"parameterUnit":"m.s-1","parameterCategory":2,"la1":30.2991,"la2":30.254,"lo1":-89.0895,"lo2":-89.0444,"dy":0.0017,"dx":0.0017,"nx":28,"ny":28,"refTime":"2024-04-20T03:00:00:Z","depth":"2","parameterNumber":2,"parameterNumberName":"U-component_of_CURRENTS"},"data":[0,0,0,0,0,0,0,0,0,0,0,0,0,0,0,0,0,0,0,0,0,0,0,0,0,0,0,0,0,0,0,0,0,0,0,0,0,0,0,0,0,0,0,0,0,0,0,0,0,0,0,0,0,0,0,0,0,0,0.1079,0.108,0,0.105,0.1049,0.1048,0.1111,0.1114,0.1117,0.112,0.1179,0.1178,0.1176,0,0,0,0,0,0,0,0,0,0,0,0,0,0.1301,0.1295,0.1079,0.108,0.1081,0.105,0.1049,0.1047,0.1111,0.1115,0.1118,0.1122,0.1179,0.1178,0.1176,0,0,0,0,0,0,0,0,0,0,0,0,0,0.1221,0.1293,0.1079,0.1116,0.112,0.105,0.1049,0.1047,0.111,0.1115,0.1119,0.1123,0.118,0.1178,0.1176,0.1073,0,0,0.117,0.1169,0,0,0,0,0,0,0,0,0.1225,0.1211,0.111,0.1114,0.1118,0.1098,0.1149,0.1064,0.1109,0.1103,0.112,0.1126,0.1164,0.1163,0.1131,0.1076,0.1079,0.117,0.1169,0.1168,0.1168,0,0,0,0,0,0,0,0.123,0.1214,0.1057,0.1111,0.1116,0.1174,0.1165,0.1132,0.1101,0.1103,0.1111,0.1123,0.1166,0.1133,0.1134,0.1079,0.117,0.1168,0.1167,0.1166,0.1185,0.1186,0,0,0,0,0,0,0.1243,0.1217,0.1058,0.1057,0.1196,0.1166,0.1156,0.1091,0.11,0.1108,0.1119,0.1126,0.1134,0.1136,0.1136,0.1238,0.1168,0.1166,0.1165,0.1183,0.1185,0.1187,0,0,0,0,0,0,0.1246,0.1225,0.1059,0.1151,0.1136,0.1158,0.1085,0.1089,0.1131,0.1113,0.1122,0.1168,0.1137,0.1139,0.1183,0.1233,0.1165,0.1164,0.1181,0.1184,0.1186,0.1299,0,0,0,0,0,0,0.1251,0.1224,0.1199,0.1148,0.1131,0.1068,0.1082,0.1085,0.1132,0.1142,0.1155,0.1161,0.1141,0.1186,0.1181,0.1229,0.1162,0.1179,0.1182,0.1185,0.1293,0.1305,0.1315,0,0,0,0,0,0.1257,0.1213,0.1195,0.118,0.1086,0.107,0.1066,0.1093,0.1131,0.1147,0.1175,0.1165,0.1202,0.1185,0.1179,0.1228,0.1178,0.1181,0.1185,0.1288,0.1302,0.1315,0,0,0,0,0,0,0.135,0.1214,0.1195,0.1125,0.1123,0.1087,0.1128,0.1124,0.1148,0.1202,0.1172,0.1178,0.1228,0.1209,0.119,0.1242,0.1192,0.1195,0.1273,0.1286,0.1296,0.1315,0.1161,0,0,0,0,0,0.1338,0.1234,0.1183,0.114,0.1158,0.1148,0.1156,0.1176,0.1186,0.1204,0.119,0.1206,0.1216,0.1245,0.1228,0.1254,0.126,0.1285,0.1296,0.1306,0.1317,0.1358,0.1374,0.1199,0.1199,0.1199,0,0,0.1373,0.1284,0.1238,0.115,0.1166,0.1199,0.1166,0.1219,0.1243,0.1205,0.1247,0.1232,0.1227,0.1259,0.1282,0.127,0.1366,0.131,0.1319,0.1325,0.1363,0.138,0.1396,0.1201,0.1201,0.1201,0,0,0.1412,0.1323,0.128,0.1265,0.128,0.1284,0.1316,0.1303,0.1311,0.1332,0.132,0.134,0.1338,0.1334,0.1341,0.1398,0.1406,0.1412,0.1503,0.1543,0.1558,0.1571,0.1634,0.1652,0.1437,0.1438,0.1438,0,0.1446,0.1361,0.1293,0.1286,0.1297,0.1339,0.1377,0.1387,0.1379,0.1373,0.1385,0.1376,0.137,0.141,0.1448,0.1424,0.1466,0.1456,0.1559,0.1572,0.1583,0.1645,0.1663,0.1444,0.1443,0.1442,0.1442,0,0.1484,0.142,0.1431,0.1395,0.1428,0.1457,0.1487,0.151,0.1537,0.1521,0.1541,0.1514,0.1518,0.152,0.1516,0.1591,0.1603,0.1554,0.1529,0.1608,0.1668,0.1685,0.1452,0.145,0.1448,0.1447,0,0,0.1467,0.1432,0.143,0.1411,0.1465,0.1481,0.1573,0.1599,0.1642,0.1644,0.1662,0.1675,0.1664,0.1669,0.1649,0.1693,0.1819,0.1692,0.1691,0.1763,0.1957,0.1877,0.1887,0.1811,0.1814,0.1816,0.1979,0,0.1492,0.147,0.1461,0.1497,0.1509,0.1548,0.1618,0.1674,0.1702,0.173,0.1732,0.1749,0.1726,0.1742,0.1792,0.1783,0.1866,0.1782,0.1862,0.1865,0.1789,0.1903,0.1662,0.1778,0.1995,0.1998,0.2,0,0.1517,0.1471,0.1516,0.1481,0.1504,0.1566,0.1655,0.1704,0.1791,0.1804,0.1851,0.1856,0.1916,0.1883,0.1972,0.1934,0.1985,0.1986,0.1991,0.1884,0.1814,0.1727,0.1801,0.2028,0.2025,0.2023,0.2021,0,0.1531,0.1479,0.1506,0.15,0.1545,0.1577,0.1625,0.1737,0.1763,0.1857,0.1889,0.1964,0.1993,0.206,0.2088,0.206,0.2191,0.2131,0.2115,0.211,0.1899,0.187,0.2239,0.2239,0.2239,0.2238,0.2238,0,0.1504,0.1476,0.1503,0.1504,0.1529,0.159,0.1646,0.1701,0.1806,0.1842,0.193,0.1972,0.2046,0.2118,0.2155,0.2194,0.2253,0.2163,0.2152,0.1934,0.1907,0.2096,0.2077,0.2244,0.2243,0.2242,0.2241,0,0.1501,0.151,0.1489,0.1525,0.1544,0.157,0.1615,0.167,0.1765,0.1821,0.1858,0.2007,0.2107,0.2175,0.2279,0.2251,0.2295,0.2306,0.2061,0.2016,0.2185,0.217,0.231,0.2309,0.2307,0.2306,0.2306,0,0.15,0.1531,0.1531,0.1517,0.1518,0.1539,0.1609,0.1675,0.1722,0.1813,0.1867,0.1997,0.2072,0.2217,0.218,0.224,0.234,0.2081,0.1953,0.222,0.2196,0.2182,0.217,0.1744,0.1739,0.1734,0.1731,0,0.1513,0.1544,0.1543,0.1529,0.1551,0.1524,0.158,0.1596,0.1687,0.1737,0.1832,0.1896,0.1991,0.1946,0.2017,0.2017,0.2037,0.1992,0.2351,0.1745,0.1694,0.1667,0.1672,0.1692,0.1696,0.1698,0.17,0.1702,0.1547,0.1507,0.1544,0.1517,0.1537,0.1513,0.1476,0.1527,0.1579,0.158,0.1693,0.1671,0.1704,0.166,0.1681,0.1687,0.1816,0.1746,0.1756,0.1773,0.166,0.1606,0.157,0.1573,0.1576,0.1578,0.158,0,0.1487,0.1458,0.1499,0.1444,0.1459,0.1463,0.1485,0.143,0.1425,0.1424,0.1426,0.1234,0.1228,0.1326,0.1223,0.1256,0.1223,0.1276,0.1195,0.1233,0.1267,0.1126,0.0897,0.0896,0.0895,0.0893,0,0,0.1417,0.1379,0.1396,0.1389,0.1378,0.1322,0.129,0.1233,0.1194,0.1086,0.1006,0.1014,0.1139,0.0908,0.095,0.0914,0.1067,0.0889,0.142,0.1352,0.1384,0.1508,0.1329,0,0,0,0,0]},{"header":{"parameterUnit":"m.s-1","parameterCategory":2,"la1":30.2991,"la2":30.254,"lo1":-89.0895,"lo2":-89.0444,"dy":0.0017,"dx":0.0017,"nx":28,"ny":28,"refTime":"2024-04-20T03:00:00:Z","depth":"2","parameterNumber":3,"parameterNumberName":"V-component_of_CURRENTS"},"data":[0,0,0,0,0,0,0,0,0,0,0,0,0,0,0,0,0,0,0,0,0,0,0,0,0,0,0,0,0,0,0,0,0,0,0,0,0,0,0,0,0,0,0,0,0,0,0,0,0,0,0,0,0,0,0,0,0,0,0.0453,0.0453,0,0.051,0.0512,0.0513,0.0471,0.0469,0.0466,0.0464,0.037,0.037,0.037,0,0,0,0,0,0,0,0,0,0,0,0,0,0.0217,0.0223,0.0453,0.0453,0.0453,0.051,0.0512,0.0513,0.0472,0.0469,0.0465,0.0462,0.037,0.037,0.037,0,0,0,0,0,0,0,0,0,0,0,0,0,0.031,0.0225,0.0453,0.0433,0.0431,0.051,0.0512,0.0514,0.0472,0.0469,0.0465,0.0461,0.037,0.037,0.037,0.0448,0,0,0.037,0.037,0,0,0,0,0,0,0,0,0.0305,0.032,0.0436,0.0434,0.0432,0.0472,0.0394,0.0481,0.0473,0.0466,0.0464,0.0459,0.0388,0.0386,0.042,0.0444,0.044,0.037,0.037,0.037,0.037,0,0,0,0,0,0,0,0.0299,0.0316,0.0484,0.0436,0.0434,0.0389,0.04,0.0411,0.0452,0.0466,0.0461,0.0455,0.0386,0.042,0.0417,0.0439,0.037,0.037,0.037,0.037,0.0414,0.0415,0,0,0,0,0,0,0.0285,0.0312,0.0482,0.0485,0.0348,0.0396,0.0409,0.047,0.0455,0.0448,0.0459,0.0453,0.0422,0.0417,0.0413,0.0382,0.037,0.037,0.037,0.0413,0.0414,0.0416,0,0,0,0,0,0,0.0281,0.0303,0.048,0.0387,0.0406,0.0404,0.0474,0.0473,0.0441,0.0449,0.044,0.0416,0.0419,0.0413,0.0393,0.0382,0.037,0.037,0.0411,0.0413,0.0415,0.0398,0,0,0,0,0,0,0.0276,0.0303,0.0337,0.039,0.041,0.0497,0.0477,0.0477,0.0443,0.0435,0.0412,0.0403,0.0415,0.0394,0.0393,0.0382,0.037,0.041,0.0412,0.0414,0.0397,0.0399,0.0401,0,0,0,0,0,0.0268,0.0325,0.034,0.0358,0.0463,0.0497,0.0504,0.0492,0.0444,0.0445,0.0428,0.04,0.0407,0.0395,0.0394,0.0382,0.0409,0.0412,0.0414,0.0396,0.0399,0.0401,0,0,0,0,0,0,0.0214,0.0328,0.0344,0.0427,0.0444,0.0485,0.0459,0.0462,0.0457,0.0399,0.0417,0.0411,0.0403,0.0399,0.0385,0.0407,0.0404,0.0407,0.0391,0.0393,0.0395,0.0393,0.037,0,0,0,0,0,0.0229,0.0322,0.0374,0.0433,0.0414,0.0427,0.0429,0.0414,0.0416,0.0405,0.0414,0.0407,0.0433,0.0408,0.0438,0.0433,0.0434,0.0428,0.043,0.0431,0.0433,0.0464,0.0468,0.0425,0.0425,0.0425,0,0,0.0219,0.0293,0.0339,0.0429,0.0415,0.0395,0.0417,0.0378,0.0385,0.0395,0.0388,0.0417,0.0441,0.0458,0.045,0.0432,0.0438,0.0434,0.0435,0.0436,0.0467,0.0471,0.0474,0.0427,0.0426,0.0426,0,0,0.0208,0.029,0.0324,0.0347,0.0332,0.0332,0.0303,0.0317,0.0334,0.0337,0.0371,0.0402,0.0397,0.0464,0.048,0.0509,0.0465,0.0486,0.0465,0.0495,0.0498,0.0501,0.0471,0.0472,0.0463,0.0463,0.0463,0,0.0194,0.0276,0.0324,0.0331,0.0335,0.0285,0.0263,0.028,0.0306,0.0348,0.0303,0.0401,0.0416,0.0496,0.0503,0.0513,0.0486,0.0448,0.0495,0.0498,0.0502,0.0471,0.0472,0.0463,0.0463,0.0463,0.0463,0,0.0181,0.0244,0.0234,0.0257,0.0246,0.0229,0.0224,0.0231,0.0207,0.0251,0.0322,0.0384,0.0429,0.0459,0.047,0.0527,0.0484,0.051,0.0482,0.0505,0.0471,0.0472,0.0462,0.0462,0.0462,0.0462,0,0,0.0217,0.0243,0.0248,0.0271,0.0224,0.023,0.0196,0.023,0.0235,0.0266,0.0322,0.0408,0.042,0.0446,0.0498,0.0534,0.053,0.05,0.0502,0.0455,0.0523,0.0498,0.0496,0.0536,0.0537,0.0538,0.0475,0,0.0209,0.0232,0.0246,0.0245,0.0231,0.0225,0.0213,0.0221,0.0227,0.0266,0.0348,0.0387,0.0416,0.0419,0.0461,0.0554,0.0536,0.0541,0.0522,0.0521,0.0485,0.05,0.0475,0.0418,0.0476,0.0476,0.0476,0,0.0196,0.0241,0.0219,0.0288,0.0275,0.0243,0.0243,0.024,0.0258,0.0282,0.0315,0.0333,0.0423,0.0406,0.0516,0.0498,0.0474,0.0524,0.0523,0.0511,0.05,0.0415,0.0418,0.0478,0.0478,0.0478,0.0478,0,0.0186,0.0253,0.0248,0.0265,0.0264,0.0274,0.025,0.0229,0.0255,0.0265,0.027,0.0342,0.0375,0.0407,0.0466,0.046,0.0555,0.0565,0.0511,0.0507,0.0493,0.0487,0.0565,0.0566,0.0566,0.0566,0.0566,0,0.022,0.0266,0.025,0.0265,0.0283,0.0251,0.0247,0.026,0.0237,0.0292,0.0253,0.031,0.0368,0.0416,0.0442,0.0491,0.0517,0.0507,0.0503,0.0483,0.0477,0.0549,0.0548,0.0563,0.0564,0.0564,0.0565,0,0.0222,0.0225,0.0258,0.0263,0.0262,0.0256,0.0252,0.0237,0.0228,0.0291,0.0283,0.0288,0.0349,0.0388,0.0461,0.0472,0.0523,0.0498,0.044,0.0432,0.0439,0.0438,0.0434,0.0433,0.0432,0.0432,0.0431,0,0.0214,0.019,0.0211,0.0234,0.0249,0.0245,0.0195,0.0202,0.0213,0.0326,0.0351,0.0368,0.0436,0.0477,0.0457,0.045,0.0471,0.0402,0.0415,0.0436,0.0433,0.0433,0.0434,0.0365,0.0364,0.0363,0.0362,0,0.0198,0.0175,0.0214,0.0189,0.0184,0.0242,0.0229,0.0263,0.0309,0.0382,0.0493,0.0546,0.052,0.049,0.0419,0.0418,0.0416,0.038,0.0444,0.0411,0.0369,0.0366,0.0369,0.0354,0.0355,0.0356,0.0356,0.0356,0.0178,0.0217,0.0185,0.0206,0.0197,0.0263,0.0315,0.0354,0.0429,0.0597,0.0632,0.0711,0.061,0.0498,0.0417,0.0292,0.0331,0.0324,0.0327,0.0332,0.0344,0.0305,0.0275,0.0276,0.0276,0.0276,0.0277,0,0.0212,0.0253,0.0211,0.0281,0.0265,0.0264,0.0336,0.041,0.0557,0.066,0.0782,0.0732,0.0651,0.0503,0.0298,0.0223,0.0216,0.0199,0.0212,0.0221,0.0229,0.0237,0.0139,0.0138,0.0138,0.0137,0,0,0.0278,0.0308,0.0294,0.0319,0.0338,0.039,0.047,0.058,0.0655,0.0785,0.0802,0.0853,0.0675,0.0513,0.0372,0.024,0.0254,0.0218,0.0341,0.0382,0.039,0.0315,0.034,0,0,0,0,0]}],[{"header":{"parameterUnit":"m.s-1","parameterCategory":2,"la1":30.2991,"la2":30.254,"lo1":-89.0895,"lo2":-89.0444,"dy":0.0017,"dx":0.0017,"nx":28,"ny":28,"refTime":"2024-04-20T03:00:00:Z","depth":"4","parameterNumber":2,"parameterNumberName":"U-component_of_CURRENTS"},"data":[0,0,0,0,0,0,0,0,0,0,0,0,0,0,0,0,0,0,0,0,0,0,0,0,0,0,0,0,0,0,0,0,0,0,0,0,0,0,0,0,0,0,0,0,0,0,0,0,0,0,0,0,0,0,0,0,0,0,-0.0363,-0.0363,0,-0.0378,-0.0379,-0.0379,-0.0368,-0.0368,-0.0367,-0.0366,-0.0368,-0.0369,-0.037,0,0,0,0,0,0,0,0,0,0,0,0,0,-0.0364,-0.0364,-0.0363,-0.0363,-0.0363,-0.0378,-0.0379,-0.0379,-0.0368,-0.0368,-0.0367,-0.0366,-0.0368,-0.0369,-0.037,0,0,0,0,0,0,0,0,0,0,0,0,0,-0.0373,-0.0364,-0.0363,-0.0358,-0.0357,-0.0378,-0.0379,-0.0379,-0.0369,-0.0368,-0.0366,-0.0365,-0.0368,-0.0369,-0.037,-0.0399,0,0,-0.0373,-0.0374,0,0,0,0,0,0,0,0,-0.0372,-0.0373,-0.0358,-0.0358,-0.0357,-0.0368,-0.0379,-0.0384,-0.0369,-0.0367,-0.0366,-0.0365,-0.0366,-0.0367,-0.0377,-0.0399,-0.0399,-0.0373,-0.0374,-0.0374,-0.0375,0,0,0,0,0,0,0,-0.0372,-0.0373,-0.0372,-0.0358,-0.0358,-0.0367,-0.0367,-0.0381,-0.0375,-0.0367,-0.0366,-0.0363,-0.0365,-0.0376,-0.0376,-0.0399,-0.0373,-0.0374,-0.0375,-0.0375,-0.0394,-0.0394,0,0,0,0,0,0,-0.0363,-0.0372,-0.0372,-0.0372,-0.0359,-0.0367,-0.0368,-0.0368,-0.0375,-0.0374,-0.0364,-0.0363,-0.0374,-0.0375,-0.0376,-0.032,-0.0374,-0.0375,-0.0376,-0.0395,-0.0394,-0.0394,0,0,0,0,0,0,-0.0363,-0.0363,-0.0371,-0.037,-0.0371,-0.0368,-0.0369,-0.0369,-0.0362,-0.0372,-0.0371,-0.0355,-0.0373,-0.0375,-0.0363,-0.0323,-0.0376,-0.0377,-0.0395,-0.0395,-0.0394,-0.0265,0,0,0,0,0,0,-0.0363,-0.0363,-0.0361,-0.0369,-0.0371,-0.037,-0.037,-0.037,-0.0361,-0.0359,-0.0364,-0.0364,-0.0373,-0.0361,-0.0364,-0.0326,-0.0378,-0.0395,-0.0395,-0.0394,-0.027,-0.0261,-0.0253,0,0,0,0,0,-0.0363,-0.0362,-0.0361,-0.0361,-0.0368,-0.037,-0.0372,-0.0368,-0.0362,-0.0358,-0.0351,-0.0363,-0.0361,-0.0361,-0.0365,-0.0326,-0.0395,-0.0395,-0.0394,-0.0274,-0.0263,-0.0253,0,0,0,0,0,0,-0.0361,-0.036,-0.036,-0.0358,-0.0358,-0.0366,-0.0367,-0.0361,-0.0357,-0.0347,-0.0357,-0.0356,-0.0332,-0.0361,-0.0361,-0.0337,-0.0383,-0.0383,-0.029,-0.028,-0.0272,-0.0236,-0.0379,0,0,0,0,0,-0.036,-0.0359,-0.0359,-0.0358,-0.0358,-0.0361,-0.0361,-0.0352,-0.0348,-0.0345,-0.0317,-0.032,-0.034,-0.0333,-0.0343,-0.0329,-0.0384,-0.0313,-0.0304,-0.0296,-0.0274,-0.036,-0.0357,-0.0393,-0.0393,-0.0393,0,0,-0.0363,-0.0359,-0.0361,-0.0358,-0.0362,-0.0344,-0.0359,-0.0349,-0.031,-0.0347,-0.0266,-0.0284,-0.0333,-0.0307,-0.03,-0.0318,-0.0313,-0.0296,-0.0288,-0.027,-0.0359,-0.0356,-0.0352,-0.0393,-0.0393,-0.0393,0,0,-0.036,-0.0362,-0.0357,-0.0352,-0.0342,-0.0331,-0.0322,-0.0291,-0.0259,-0.02,-0.0227,-0.0226,-0.0199,-0.0234,-0.0259,-0.0223,-0.0269,-0.0216,-0.0131,-0.0214,-0.0212,-0.021,-0.0257,-0.0261,-0.0206,-0.0206,-0.0206,0,-0.0355,-0.0347,-0.0357,-0.0345,-0.0323,-0.0318,-0.0288,-0.0265,-0.0213,-0.0176,-0.015,-0.0141,-0.0172,-0.0201,-0.0166,-0.02,-0.0235,-0.0158,-0.0201,-0.0201,-0.0201,-0.025,-0.0256,-0.02,-0.02,-0.0201,-0.0201,0,-0.0345,-0.0334,-0.0331,-0.0303,-0.0282,-0.0259,-0.0219,-0.0157,-0.0093,-0.006,-0.0015,-0.0046,-0.0042,-0.0058,-0.0083,-0.0102,-0.0121,-0.0183,-0.0218,-0.0189,-0.0243,-0.0251,-0.0191,-0.0193,-0.0195,-0.0196,0,0,-0.0324,-0.0322,-0.0315,-0.0289,-0.0248,-0.0223,-0.0147,-0.0081,-0.0029,0.0045,0.0097,0.0091,0.0096,0.0065,0.0015,-0.0036,-0.006,-0.0072,-0.008,-0.0101,-0.02,-0.0092,-0.0091,-0.0116,-0.0117,-0.0118,-0.023,0,-0.03,-0.028,-0.0264,-0.0202,-0.0182,-0.0131,-0.006,0.0003,0.0069,0.013,0.0102,0.0126,0.0128,0.0133,0.009,-0.0045,-0.0076,-0.0021,-0.024,-0.0246,-0.014,-0.0096,-0.0121,-0.0236,-0.0238,-0.024,-0.0241,0,-0.0273,-0.0262,-0.0214,-0.0144,-0.0124,-0.0049,0.007,0.0129,0.0183,0.0229,0.0254,0.0229,0.0187,0.0166,0.0017,0.0064,-0.0024,-0.0122,-0.0131,-0.0076,-0.0151,-0.0281,-0.0256,-0.0255,-0.0254,-0.0253,-0.0252,0,-0.0249,-0.0206,-0.0158,-0.0139,-0.0066,0.0027,0.0106,0.0189,0.0215,0.0292,0.0284,0.027,0.0209,0.0127,-0.0034,0.0006,-0.024,-0.0241,-0.0226,-0.0221,-0.0345,-0.0347,-0.0338,-0.0338,-0.0338,-0.0337,-0.0337,0,-0.0212,-0.0175,-0.0125,-0.0093,0.0014,0.0076,0.0192,0.0273,0.0303,0.0293,0.0338,0.0273,0.0195,0.0045,-0.0041,-0.0157,-0.0251,-0.018,-0.0233,-0.0287,-0.0281,-0.035,-0.035,-0.0342,-0.0341,-0.034,-0.0339,0,-0.019,-0.0177,-0.0122,-0.0024,0.0028,0.0122,0.0229,0.0254,0.0322,0.0293,0.0304,0.0233,0.0137,0.0019,-0.0177,-0.0194,-0.0318,-0.0354,-0.0395,-0.0456,-0.0218,-0.0211,-0.0251,-0.0248,-0.0246,-0.0243,-0.0241,0,-0.018,-0.0158,-0.0074,-0.0046,0.0024,0.0145,0.0187,0.028,0.0261,0.0236,0.0167,0.0108,0.0073,-0.0116,-0.0206,-0.0297,-0.0315,-0.0367,-0.0228,-0.0156,-0.0206,-0.0203,-0.0199,-0.0237,-0.0237,-0.0236,-0.0235,0,-0.017,-0.0143,-0.0104,-0.0057,0.0013,0.0056,0.0131,0.0116,0.0158,0.0168,0.0108,0.0102,-0.0011,-0.0068,-0.0152,-0.0245,-0.0303,-0.0338,-0.0341,-0.021,-0.0141,-0.0192,-0.0191,-0.0226,-0.0227,-0.0228,-0.0229,0,-0.0159,-0.0136,-0.0115,-0.0059,-0.0034,-0.0029,0.0035,0.0034,0.0053,0.0058,0.0007,-0.0019,-0.0043,-0.0053,-0.0177,-0.0179,-0.0112,-0.0103,-0.0117,-0.0127,-0.0026,0.0084,0.0046,0,0,0,0,0,-0.0148,-0.0144,-0.0132,-0.0078,-0.0088,-0.0057,-0.0046,-0.0017,0.001,-0.001,0.0039,-0.0018,-0.001,-0.0068,-0.003,-0.0121,-0.0154,-0.008,-0.0161,-0.0176,-0.0186,-0.0074,0,0,0,0,0,0,-0.0145,-0.0134,-0.0141,-0.0152,-0.0128,-0.0121,-0.0109,-0.0087,-0.0079,-0.004,-0.0051,0.0017,-0.0016,-0.0012,-0.0021,-0.0026,-0.0065,-0.0075,-0.0073,-0.017,-0.0179,-0.0188,-0.0076,0,0,0,0,0]},{"header":{"parameterUnit":"m.s-1","parameterCategory":2,"la1":30.2991,"la2":30.254,"lo1":-89.0895,"lo2":-89.0444,"dy":0.0017,"dx":0.0017,"nx":28,"ny":28,"refTime":"2024-04-20T03:00:00:Z","depth":"4","parameterNumber":3,"parameterNumberName":"V-component_of_CURRENTS"},"data":[0,0,0,0,0,0,0,0,0,0,0,0,0,0,0,0,0,0,0,0,0,0,0,0,0,0,0,0,0,0,0,0,0,0,0,0,0,0,0,0,0,0,0,0,0,0,0,0,0,0,0,0,0,0,0,0,0,0,0.0525,0.0525,0,0.0545,0.0545,0.0546,0.065,0.0652,0.0654,0.0657,0.0712,0.0711,0.071,0,0,0,0,0,0,0,0,0,0,0,0,0,0.0534,0.0534,0.0525,0.0525,0.0526,0.0545,0.0545,0.0546,0.0649,0.0652,0.0655,0.0658,0.0712,0.0711,0.071,0,0,0,0,0,0,0,0,0,0,0,0,0,0.0541,0.0533,0.0525,0.0578,0.0583,0.0545,0.0545,0.0546,0.0649,0.0652,0.0656,0.0659,0.0712,0.0711,0.071,0.0633,0,0,0.0707,0.0706,0,0,0,0,0,0,0,0,0.054,0.0541,0.057,0.0575,0.058,0.0597,0.0569,0.0576,0.0648,0.0625,0.0657,0.0661,0.0673,0.0675,0.0673,0.0636,0.0638,0.0707,0.0706,0.0706,0.0705,0,0,0,0,0,0,0,0.054,0.054,0.0535,0.057,0.0576,0.0586,0.0592,0.057,0.0631,0.0628,0.0635,0.0633,0.0677,0.0674,0.0675,0.0639,0.0707,0.0706,0.0705,0.0705,0.0608,0.0607,0,0,0,0,0,0,0.0533,0.0539,0.0534,0.0535,0.0567,0.0583,0.059,0.0589,0.0631,0.064,0.063,0.0638,0.0674,0.0676,0.0677,0.0658,0.0706,0.0705,0.0704,0.061,0.0608,0.0606,0,0,0,0,0,0,0.0533,0.0532,0.0533,0.0537,0.0538,0.058,0.0578,0.0588,0.0632,0.0632,0.0643,0.0671,0.0677,0.0679,0.0692,0.0659,0.0704,0.0703,0.0613,0.061,0.0607,0.0575,0,0,0,0,0,0,0.0533,0.0532,0.0538,0.0536,0.0537,0.0543,0.0575,0.0586,0.0622,0.0634,0.0668,0.0675,0.068,0.0694,0.0691,0.0659,0.0702,0.0615,0.0611,0.0608,0.0579,0.0572,0.0566,0,0,0,0,0,0.0533,0.0534,0.0538,0.0538,0.0542,0.0543,0.0546,0.0587,0.0621,0.0641,0.0661,0.0677,0.0668,0.0692,0.0689,0.0655,0.0617,0.0612,0.0608,0.0582,0.0573,0.0566,0,0,0,0,0,0,0.0549,0.0544,0.0549,0.0551,0.0558,0.0562,0.0595,0.06,0.0629,0.0657,0.0663,0.0669,0.0658,0.0659,0.0685,0.0613,0.0638,0.0633,0.0619,0.0611,0.0605,0.0609,0.0702,0,0,0,0,0,0.0546,0.0546,0.0544,0.0546,0.0569,0.0582,0.0593,0.0609,0.0625,0.0646,0.0662,0.0661,0.0623,0.0629,0.061,0.0581,0.0583,0.0551,0.0545,0.054,0.0538,0.0499,0.0489,0.0592,0.0592,0.0592,0,0,0.0553,0.0547,0.055,0.0549,0.0577,0.0587,0.0603,0.0633,0.0621,0.064,0.0664,0.0645,0.061,0.0576,0.0569,0.0586,0.0514,0.0534,0.053,0.0532,0.0493,0.0483,0.0475,0.0589,0.0589,0.059,0,0,0.0556,0.0576,0.0581,0.0594,0.0618,0.0614,0.0629,0.0648,0.0658,0.0646,0.064,0.061,0.0593,0.0544,0.0514,0.0455,0.0477,0.0449,0.0427,0.0387,0.0379,0.0372,0.0381,0.0375,0.0451,0.0451,0.0451,0,0.0567,0.057,0.0583,0.0599,0.0618,0.0633,0.065,0.0637,0.0644,0.0626,0.0664,0.0575,0.0562,0.0462,0.0447,0.0439,0.0447,0.0464,0.0381,0.0374,0.0367,0.0377,0.0371,0.0449,0.0449,0.0449,0.0449,0,0.0578,0.059,0.0614,0.0628,0.0638,0.0667,0.0654,0.0653,0.066,0.0626,0.0564,0.0528,0.0479,0.0445,0.0434,0.035,0.0383,0.0376,0.0408,0.0355,0.0369,0.0363,0.0446,0.0446,0.0447,0.0447,0,0,0.0581,0.0611,0.0623,0.0645,0.0667,0.0678,0.0653,0.0619,0.0593,0.0568,0.0513,0.0428,0.0418,0.038,0.0343,0.0301,0.0263,0.0329,0.0328,0.0351,0.0221,0.0217,0.0211,0.0253,0.0251,0.0249,0.026,0,0.0599,0.0617,0.0626,0.066,0.0686,0.0691,0.0662,0.0621,0.0583,0.0531,0.0444,0.0401,0.0385,0.0373,0.0313,0.0257,0.0243,0.0264,0.0258,0.0258,0.027,0.02,0.0243,0.0255,0.0254,0.0253,0.0252,0,0.0609,0.0619,0.0662,0.0674,0.0695,0.0731,0.0706,0.0673,0.057,0.054,0.0457,0.0396,0.0296,0.0318,0.0209,0.0231,0.024,0.0211,0.0211,0.0212,0.024,0.0311,0.0241,0.0242,0.0243,0.0244,0.0244,0,0.0606,0.0641,0.0681,0.0703,0.0721,0.0765,0.0779,0.0705,0.0673,0.0575,0.0527,0.0395,0.0346,0.0291,0.0226,0.0232,0.013,0.0131,0.0141,0.0143,0.0165,0.0173,0.0099,0.0099,0.0099,0.0099,0.0099,0,0.0611,0.0644,0.0719,0.076,0.0821,0.0824,0.0862,0.0827,0.0762,0.0677,0.0572,0.0448,0.0341,0.0244,0.0217,0.0147,0.0133,0.0125,0.0126,0.0155,0.016,0.0163,0.017,0.0099,0.0099,0.0099,0.0099,0,0.0608,0.0646,0.0713,0.0795,0.0842,0.0906,0.0983,0.0961,0.09,0.0781,0.0757,0.0519,0.0364,0.0278,0.017,0.0142,0.0085,0.0095,0.0156,0.0165,0.0136,0.0142,0.0078,0.0078,0.0077,0.0077,0.0077,0,0.0606,0.0634,0.0777,0.0842,0.0928,0.1026,0.1067,0.1065,0.0988,0.0775,0.0668,0.0508,0.0346,0.0194,0.0103,0.0072,0.0081,0.0094,0.0078,0.0116,0.0125,0.0131,0.0137,0.0076,0.0076,0.0076,0.0076,0,0.0584,0.0661,0.0707,0.0871,0.0991,0.1051,0.1088,0.1036,0.0922,0.089,0.0608,0.0474,0.0284,0.0139,0.015,0.0109,0.008,0.0089,0.009,0.0075,0.0113,0.0123,0.013,0.0074,0.0074,0.0075,0.0075,0,0.058,0.061,0.0709,0.0844,0.0976,0.1003,0.1035,0.0941,0.0894,0.0655,0.0555,0.0359,0.0258,0.0155,0.0116,0.0112,0.01,0.0121,0.012,0.0121,0.0118,0.0172,0.0138,0,0,0,0,0,0.0568,0.0577,0.0668,0.0788,0.0917,0.0988,0.0981,0.0957,0.0845,0.0679,0.0628,0.0453,0.0306,0.018,0.0179,0.0095,0.0095,0.009,0.0121,0.0066,0.0068,0.0054,0,0,0,0,0,0,0.0546,0.0607,0.0629,0.072,0.0784,0.0886,0.0872,0.0791,0.0667,0.0569,0.0489,0.0474,0.0333,0.0335,0.0184,0.0166,0.0188,0.0033,0.0033,0.0065,0.0066,0.0068,0.0054,0,0,0,0,0]}]]